Regional Weather Roundup
Issued by NWS

Home | Current Version | Previous Version | Text Only | Print | Product List | Glossary On
Versions: 1 2 3 4 5 6 7 8 9 10 11 12 13 14 15 16 17 18 19 20 21 22 23 24 25 26 27 28 29 30 31 32 33 34 35 36 37 38 39 40 41 42 43 44 45 46 47 48 49 50
000
ASCA42 TJSJ 280211
RWRPR
PUERTO RICO/U.S. VIRGIN ISLANDS HOURLY WEATHER ROUNDUP
NATIONAL WEATHER SERVICE SAN JUAN PR
1000 PM AST TUE JAN 27 2015

PRZ001-004-280300-
PUERTO RICO

CITY           SKY/WX    TMP DP  RH WIND       PRES   REMARKS
SAN JUAN LMM   CLEAR     79  72  78 CALM      30.03R
PONCE          PTCLDY    79  70  73 E6        30.00R
AGUADILLA      MOCLDY    73  70  88 SW3       30.05R
CEIBA          CLEAR     75  72  88 SW5       30.06R
$$

PRZ006-007-280300-
U.S. VIRGIN ISLANDS

CITY           SKY/WX    TMP DP  RH WIND       PRES   REMARKS
CHRISTIANSTED  CLEAR     75  70  83 E7        30.05
$$

HOURLY WEATHER ROUNDUP FOR THE NEWS MEDIA

CITY           SKY/WX    TMP DP  RH WIND       PRES   REMARKS
MIAMI          CLEAR     60  52  74 W6        30.05R
ORLANDO        CLEAR     59  46  62 NW12G20   30.00R
NEW YORK       CLOUDY    24  13  62 N14       29.78R WCI  12
NEWARK         CLOUDY    23  10  57 N16G28    29.80R WCI  10
CHICAGO        PTCLDY    25  17  72 NE5       30.23F WCI  19
HARTFORD       LGT SNOW  16  11  80 NW9G21    29.58R WCI   4
BOSTON         LGT SNOW  14   9  80 NW22G28   29.61R WCI  -4
DALLAS         MOCLDY    62  40  44 SE6       30.11R
PHILADELPHIA   MOCLDY    28   8  43 N10       29.84R WCI  19


USA.gov is the U.S. government's official web portal to all federal, state and local government web resources and services.